Location: Brno
(49.2000°N, 16.6330°E)
Time: 15:58:09
(UTC+02:00)

Meteor 1-4 Rocket - Visible Passes

Search period start: 28 March 2017 00:00
Search period end: 07 April 2017 00:00
Orbit: 453 x 511 km, 81.2° (Epoch: 26 March)

Date Brightness Start Highest point End Pass type
(mag) Time Alt. Az. Time Alt. Az. Time Alt. Az.
28 Mar 5.8 06:02:17 10° NNE 06:04:51 18° ENE 06:07:27 10° ESE visible
28 Mar 3.1 19:50:10 10° SSE 19:53:21 34° E 19:56:34 10° NNE visible
28 Mar 5.5 21:26:14 10° WSW 21:28:39 18° WNW 21:31:06 10° NNW visible
29 Mar 6.1 05:37:31 10° NE 05:39:10 13° ENE 05:40:49 10° E visible
29 Mar 4.9 21:00:01 10° SW 21:02:59 26° WNW 21:06:00 10° N visible
30 Mar 4.0 20:34:05 10° SW 20:37:22 39° WNW 20:40:42 10° N visible
31 Mar 3.0 20:08:20 10° SSW 20:11:47 64° WNW 20:15:17 10° N visible
01 Apr 4.7 05:54:42 10° N 05:58:04 34° ENE 06:01:29 10° SE visible
02 Apr 5.5 05:29:26 10° NNE 05:32:26 23° ENE 05:35:27 10° ESE visible
02 Apr 6.1 20:54:16 10° W 20:56:13 14° WNW 20:58:10 10° NNW visible
03 Apr 6.1 05:04:24 10° NNE 05:06:45 16° ENE 05:09:08 10° ESE visible
03 Apr 5.6 20:27:49 10° WSW 20:30:30 20° WNW 20:33:14 10° NNW visible
04 Apr 6.4 04:39:51 10° NE 04:41:01 11° ENE 04:42:12 10° E visible
04 Apr 4.8 20:01:42 10° SW 20:04:50 30° WNW 20:08:02 10° N visible
06 Apr 4.0 05:21:59 10° N 05:25:33 44° ENE 05:29:10 10° SSE visible
